User: anonymous   Login
Location: Colorado Springs
(38.8340°N, 104.8210°W)
Time: 02:42:44
(UTC-06:00)
Language:

BEESAT 3 - Orbit

View from above orbital plane
View from above orbital plane
View from above satellite
View from above satellite

Ground track
Ground track

The orbit data is extracted from the following two-line orbital elements,

1 39134U 13015E   18267.52899442 +.00001418 +00000-0 +75968-4 0  9990
2 39134 064.8633 165.4956 0003476 289.7499 070.3253 15.19424634299612
Epoch (UTC): 24 September 2018 12:41:45
Eccentricity: 0.0003476
inclination: 64.8633°
perigee height: 505 km
apogee height: 510 km
right ascension of ascending node: 165.4956°
argument of perigee: 289.7499°
revolutions per day: 15.19424634
mean anomaly at epoch: 70.3253°
orbit number at epoch: 29961

The dashed part of the orbit path shows where the satellite is in the earth's shadow,  

DLR